Waarnemingen

Advertentie
Mijn weer
Falsterbo, Zweden (2616): temperatuur & dauwpunt: 18.01.2020 01:00:00 - 24.01.2020 01:00:00 (CET)Falsterbo, Zweden (2616): windsnelheid: 18.01.2020 01:00:00 - 24.01.2020 01:00:00 (CET)Falsterbo, Zweden (2616): windrichting: 18.01.2020 01:00:00 - 24.01.2020 01:00:00 (CET)Falsterbo, Zweden (2616): luchtdruk: 18.01.2020 01:00:00 - 24.01.2020 01:00:00 (CET)Falsterbo, Zweden (2616): zicht: 18.01.2020 01:00:00 - 24.01.2020 01:00:00 (CET)Falsterbo, Zweden (2616): neerslag: 18.01.2020 01:00:00 - 24.01.2020 01:00:00 (CET)
Datum & Tijd tt [°C] td [°C] ff [km/u] ff [kn] dd ppp [hPa] vv [km] rr [mm]
24.01.2020 01:00:00 - - - - - - - -
24.01.2020 00:00:00 - - - - - - - -
23.01.2020 23:00:00 - - - - - - - -
23.01.2020 22:00:00 - - - - - - - -
23.01.2020 21:00:00 - - - - - - - -
23.01.2020 20:00:00 - - - - - - - -
23.01.2020 19:00:00 5,3 5,0 32 18 WZW 1024,7 25 -
23.01.2020 18:00:00 - - - - - - - -
23.01.2020 17:00:00 - - - - - - - -
23.01.2020 16:00:00 5,5 4,9 29 16 W 1026,0 7 -
23.01.2020 15:00:00 - - - - - - - -
23.01.2020 14:00:00 - - - - - - - -
23.01.2020 13:00:00 5,3 4,6 29 16 W 1027,8 7 -
23.01.2020 12:00:00 - - - - - - - -
23.01.2020 11:00:00 - - - - - - - -
23.01.2020 10:00:00 4,7 3,7 29 16 W 1030,2 21 -
23.01.2020 09:00:00 - - - - - - - -
23.01.2020 08:00:00 - - - - - - - -
23.01.2020 07:00:00 3,7 3,6 29 16 W 1030,5 5 -
23.01.2020 06:00:00 - - - - - - - -
23.01.2020 05:00:00 - - - - - - - -
23.01.2020 04:00:00 - - - - - - - -
23.01.2020 03:00:00 - - - - - - - -
23.01.2020 02:00:00 - - - - - - - -
23.01.2020 01:00:00 - - - - - - - -
23.01.2020 00:00:00 - - - - - - - -
22.01.2020 23:00:00 - - - - - - - -
22.01.2020 22:00:00 - - - - - - - -
22.01.2020 21:00:00 - - - - - - - -
22.01.2020 20:00:00 - - - - - - - -
22.01.2020 19:00:00 5,0 4,0 18 10 WNW 1031,0 18 0,0
22.01.2020 18:00:00 - - - - - - - -
22.01.2020 17:00:00 - - - - - - - -
22.01.2020 16:00:00 5,7 3,9 14 8 NW 1029,4 20 -
22.01.2020 15:00:00 - - - - - - - -
22.01.2020 14:00:00 - - - - - - - -
22.01.2020 13:00:00 6,3 4,5 22 12 NW 1028,3 17 0,0
22.01.2020 12:00:00 - - - - - - - -
22.01.2020 11:00:00 - - - - - - - -
22.01.2020 10:00:00 5,7 4,0 32 18 WNW 1027,1 30 -
22.01.2020 09:00:00 - - - - - - - -
22.01.2020 08:00:00 - - - - - - - -
22.01.2020 07:00:00 5,7 3,9 40 21 WNW 1025,7 35 -
22.01.2020 06:00:00 - - - - - - - -
22.01.2020 05:00:00 - - - - - - - -
22.01.2020 04:00:00 - - - - - - - -
22.01.2020 03:00:00 - - - - - - - -
22.01.2020 02:00:00 - - - - - - - -
22.01.2020 01:00:00 - - - - - - - -
22.01.2020 00:00:00 - - - - - - - -
21.01.2020 23:00:00 - - - - - - - -
21.01.2020 22:00:00 - - - - - - - -
21.01.2020 21:00:00 - - - - - - - -
21.01.2020 20:00:00 - - - - - - - -
21.01.2020 19:00:00 6,2 5,8 32 18 W 1030,6 4,0 -
21.01.2020 18:00:00 - - - - - - - -
21.01.2020 17:00:00 - - - - - - - -
21.01.2020 16:00:00 6,7 5,5 32 18 W 1031,3 10 -
21.01.2020 15:00:00 - - - - - - - -
21.01.2020 14:00:00 - - - - - - - -
21.01.2020 13:00:00 6,6 4,8 43 23 W 1032,0 20 0,0
21.01.2020 12:00:00 - - - - - - - -
21.01.2020 11:00:00 - - - - - - - -
21.01.2020 10:00:00 6,2 4,4 32 18 W 1034,3 22 -
21.01.2020 09:00:00 - - - - - - - -
21.01.2020 08:00:00 - - - - - - - -
21.01.2020 07:00:00 6,0 4,0 36 19 W 1033,8 25 0,0
21.01.2020 06:00:00 - - - - - - - -
21.01.2020 05:00:00 - - - - - - - -
21.01.2020 04:00:00 - - - - - - - -
21.01.2020 03:00:00 - - - - - - - -
21.01.2020 02:00:00 - - - - - - - -
21.01.2020 01:00:00 - - - - - - - -
21.01.2020 00:00:00 - - - - - - - -
20.01.2020 23:00:00 - - - - - - - -
20.01.2020 22:00:00 - - - - - - - -
20.01.2020 21:00:00 - - - - - - - -
20.01.2020 20:00:00 - - - - - - - -
20.01.2020 19:00:00 5,9 4,9 29 16 W 1039,1 17 0,0
20.01.2020 18:00:00 - - - - - - - -
20.01.2020 17:00:00 - - - - - - - -
20.01.2020 16:00:00 5,7 4,7 29 16 WZW 1039,4 13 -
20.01.2020 15:00:00 - - - - - - - -
20.01.2020 14:00:00 - - - - - - - -
20.01.2020 13:00:00 5,8 5,1 29 16 ZW 1040,8 11 0,0
20.01.2020 12:00:00 - - - - - - - -
20.01.2020 11:00:00 - - - - - - - -
20.01.2020 10:00:00 4,8 4,2 29 16 WZW 1041,6 9 -
20.01.2020 09:00:00 - - - - - - - -
20.01.2020 08:00:00 - - - - - - - -
20.01.2020 07:00:00 4,8 4,1 29 16 W 1041,3 13 0,0
20.01.2020 06:00:00 - - - - - - - -
20.01.2020 05:00:00 - - - - - - - -
20.01.2020 04:00:00 - - - - - - - -
20.01.2020 03:00:00 - - - - - - - -
20.01.2020 02:00:00 - - - - - - - -
20.01.2020 01:00:00 - - - - - - - -
20.01.2020 00:00:00 - - - - - - - -
19.01.2020 23:00:00 - - - - - - - -
19.01.2020 22:00:00 - - - - - - - -
19.01.2020 21:00:00 - - - - - - - -
19.01.2020 20:00:00 - - - - - - - -
19.01.2020 19:00:00 5,0 3,3 25 14 WNW 1037,1 30 0,0
19.01.2020 18:00:00 - - - - - - - -
19.01.2020 17:00:00 - - - - - - - -
19.01.2020 16:00:00 5,4 4,1 22 12 WNW 1034,2 40 -
19.01.2020 15:00:00 - - - - - - - -
19.01.2020 14:00:00 - - - - - - - -
19.01.2020 13:00:00 5,3 4,0 22 12 WNW 1031,7 17 0,0
19.01.2020 12:00:00 - - - - - - - -
19.01.2020 11:00:00 - - - - - - - -
19.01.2020 10:00:00 4,5 3,5 22 12 W 1029,1 20 -
19.01.2020 09:00:00 - - - - - - - -
19.01.2020 08:00:00 - - - - - - - -
19.01.2020 07:00:00 4,4 3,4 25 14 W 1026,0 25 0,0
19.01.2020 06:00:00 - - - - - - - -
19.01.2020 05:00:00 - - - - - - - -
19.01.2020 04:00:00 - - - - - - - -
19.01.2020 03:00:00 - - - - - - - -
19.01.2020 02:00:00 - - - - - - - -
19.01.2020 01:00:00 - - - - - - - -
19.01.2020 00:00:00 - - - - - - - -
18.01.2020 23:00:00 - - - - - - - -
18.01.2020 22:00:00 - - - - - - - -
18.01.2020 21:00:00 - - - - - - - -
18.01.2020 20:00:00 - - - - - - - -
18.01.2020 19:00:00 5,6 4,4 40 21 WZW 1017,8 28 -
18.01.2020 18:00:00 - - - - - - - -
18.01.2020 17:00:00 - - - - - - - -
18.01.2020 16:00:00 5,8 4,3 40 21 ZW 1016,1 25 -
18.01.2020 15:00:00 - - - - - - - -
18.01.2020 14:00:00 - - - - - - - -
18.01.2020 13:00:00 5,7 3,7 47 25 WZW 1015,0 22 -
18.01.2020 12:00:00 - - - - - - - -
18.01.2020 11:00:00 - - - - - - - -
18.01.2020 10:00:00 5,8 3,6 47 25 ZW 1014,6 23 -
18.01.2020 09:00:00 - - - - - - - -
18.01.2020 08:00:00 - - - - - - - -
18.01.2020 07:00:00 5,9 4,2 43 23 ZW 1013,0 30 -
18.01.2020 06:00:00 - - - - - - - -
18.01.2020 05:00:00 - - - - - - - -
18.01.2020 04:00:00 - - - - - - - -
18.01.2020 03:00:00 - - - - - - - -
18.01.2020 02:00:00 - - - - - - - -
18.01.2020 01:00:00 - - - - - - - -

tt = temperatuur
td = dauwpunt
ff = windsnelheid
dd = windrichting
ppp = luchtdruk
vv = zicht
rr = neerslag

Weerstations in de omgeving